Other Public Products
Issued by NWS Grand Forks, ND

Home | Current Version | Previous Version | Graphics & Text | Print | Product List | Glossary On
Versions: 1 2 3 4 5 6 7 8 9 10 11 12 13 14 15 16 17 18 19 20 21 22 23 24 25 26 27 28 29 30 31 32 33 34 35 36 37 38 39 40 41 42 43 44 45 46 47 48 49 50
000
FPUS83 KFGF 222310
OPUFGF
PRAIRIE TO PINES WEATHER ROUNDUP
NATIONAL WEATHER SERVICE EASTERN NORTH DAKOTA/GRAND FORKS ND
600 PM CDT WED OCT 22 2014

 **SATELLITE DATA USED TO AUGMENT SKY COVER AT AUTOMATED STATIONS**
 *****  WEATHER ACROSS EASTERN NORTH DAKOTA  *****

CITY           SKY/WX    TMP DP  RH WIND       PRES   REMARKS
GRAND FORKS    LGT RAIN  56  53  90 S10       29.82R
GRAND FORKS AF LGT RAIN  55  55 100 SW10      29.82R
GRAND CITY NWS   N/A     54 N/A N/A SW10        N/A
BUXTON         NOT AVBL
DEVILS LAKE    CLOUDY    55  46  71 SW10      29.77F
FARGO          LGT RAIN  57  54  89 SW5       29.85S
WAHPETON ARPT  CLOUDY    55  52  88 S3        29.88S
$$

 *****  WEATHER ACROSS CENTRAL AND WESTERN NORTH DAKOTA  *****

CITY           SKY/WX    TMP DP  RH WIND       PRES   REMARKS
JAMESTOWN      CLOUDY    56  51  84 S7        29.85S
BISMARCK       CLEAR     66  37  34 W15       29.86R
MINOT          CLOUDY    59  41  51 W14G25    29.79R
MINOT AFB      CLOUDY    58  44  59 W18       29.78R
GARRISON         N/A     60  41  49 W15G25    29.82R
WILLISTON      CLEAR     63  36  36 W14G23    29.81S
DICKINSON      CLEAR     60  33  36 W18       29.87R
HETTINGER      CLEAR     60  30  32 W16       29.93R
$$

 *****  OTHER OBSERVATIONS NORTHEAST NORTH DAKOTA  *****

CITY           SKY/WX    TMP DP  RH WIND       PRES   REMARKS
WALHALLA         N/A     54  54 100 S8        29.76S
LANGDON        FAIR      54  50  87 SW14      29.77R
CAVALIER       MOCLDY    55  54  94 S8        29.77F
GRAFTON        FAIR      55  55 100 SW9       29.79S
CANDO          FAIR      59  45  58 W13       29.78R
FORT TOTTEN    NOT AVBL
ROLLA          FAIR      59  43  55 W17G25    29.76R
RUGBY          MOCLDY    59  45  58 W13G18    29.78R
 ***** THE ABOVE OBSERVATIONS ARE NON NWS ARE NOT QUALITY
        CONTROLLED AND MAY MIS-REPORT RAIN FOR SNOW...
$$

 *****  OTHER OBSERVATIONS SOUTHEAST NORTH DAKOTA *****

CITY           SKY/WX    TMP DP  RH WIND       PRES   REMARKS
COOPERSTOWN    NOT AVBL
VALLEY CITY    FAIR      54  54 100 SW7       29.86S
OAKES            N/A     54  54 100 SW9       29.90R
GWINNER        PTCLDY    57  57 100 SW8       29.89R
SHEYENNE NWR     N/A     55  53  94 W6        29.95S
BUFFALO        NOT AVBL
WYNDMERE         N/A     55  55 100 SW6         N/A
 ***** THE ABOVE OBSERVATIONS ARE NON NWS ARE NOT QUALITY
       CONTROLLED AND MAY MIS-REPORT RAIN FOR SNOW...
$$

  *****  WEATHER ACROSS NORTHERN MINNESOTA  *****

CITY           SKY/WX    TMP DP  RH WIND       PRES   REMARKS
FLAG ISLAND    CLOUDY    54  46  76 S20       29.83R
WARROAD        CLOUDY    61  48  63 S10       29.84S
ROSEAU         CLOUDY    61  48  63 S16       29.82F
HALLOCK        LGT RAIN  57  54  88 SW9       29.79R
THF RVR FALLS  CLOUDY    61  45  55 S14       29.83S
HALSTAD          N/A     56  54  91 SW3         N/A
FOSSTON        CLOUDY    59  45  58 S15G24    29.86S
BAUDETTE       CLOUDY    59  43  55 S13G23    29.88R
WASKISH        CLOUDY    57  45  62 SE5       29.90S
CROOKSTON      LGT RAIN  59  52  77 SW10      29.84R
$$
  *****  WEATHER ACROSS CENTRAL AND WEST MINNESOTA  *****

CITY           SKY/WX    TMP DP  RH WIND       PRES   REMARKS
BEMIDJI        CLOUDY    57  44  59 S10G18    29.90S
PARK RAPIDS    CLOUDY    58  43  57 SE14      29.91F
WADENA         CLOUDY    61  45  55 S15G24    29.91F
DETROIT LAKES  CLOUDY    61  45  55 S12       29.88S
MOORHEAD       LGT RAIN  57  57 100 SW5       29.87S
FERGUS FALLS   RAIN      61  50  67 S13       29.89R
ELBOW LAKE     RAIN      58  52  80 S10       29.89S
MORRIS MN      DRIZZLE   63  52  67 SE9       29.89F
STAPLES        CLOUDY    57  43  58 SE8       29.94F
WHEATON        RAIN      54  52  94 CALM      29.90F
$$
  *****  WEATHER ELSEWHERE ACROSS MINNESOTA  *****

CITY           SKY/WX    TMP DP  RH WIND       PRES   REMARKS
DULUTH         MOCLDY    51  39  63 SE9       30.04S
INTRNTL FALLS  PTCLDY    58  42  55 S15G23    29.92R
ELY            NOT AVBL
CLOQUET        MOCLDY    55  36  47 SE8       30.03S
BRAINERD       CLOUDY    56  42  59 S9        29.98S
HIBBING        PTCLDY    56  38  50 S9G22     30.00S
ALEXANDRIA     CLOUDY    62  46  55 S16       29.93S
SAINT CLOUD    CLOUDY    62  43  49 SE14      29.98F
MINNEAPOLIS    CLOUDY    58  41  53 SE13      30.04F
$$

  *****  WEATHER ACROSS SOUTH DAKOTA  *****

CITY           SKY/WX    TMP DP  RH WIND       PRES   REMARKS
SIOUX FALLS    LGT RAIN  59  57  93 S6        29.96R FOG
BROOKINGS      NOT AVBL
WATERTOWN      CLOUDY    55  54  96 S7        29.93R
HURON          CLOUDY    58  53  84 W6        29.95R
SISSETON         N/A     57  55  93 CALM      29.88R
ABERDEEN       CLOUDY    57  52  83 W8        29.92S
MITCHELL       CLOUDY    58  55  90 W7        29.98R
PIERRE         CLEAR     64  41  42 NW7       29.93S
MOBRIDGE       CLEAR     66  39  37 W10       29.87F
RAPID CITY     CLEAR     63  33  32 SE3       29.99S
$$

  *****  SOME WEATHER IN NEARBY STATES *****

CITY           SKY/WX    TMP DP  RH WIND       PRES   REMARKS
GLASGOW MT     CLEAR     61  31  32 W14       29.83F
GREAT FALLS MT SUNNY     59  32  36 SW17G30   29.85F
CHEYENNE WY    CLOUDY    63  29  27 W13       30.10R
SCOTTSBLUFF NE SUNNY     66  22  18 NW14G23   30.02S
OMAHA NE       MOCLDY    72  54  53 SE17      29.99S
DES MOINES IA  MOCLDY    64  47  53 S12       30.11R
DAVENPORT IA   CLEAR     56  35  45 SE9       30.21F
CHICAGO IL     PTCLDY    48  36  63 E8        30.28S
EAU CLAIRE WI  PTCLDY    56  33  42 SE12      30.13F
LA CROSSE WI   MOCLDY    57  37  47 SE9       30.16F
$$

  *****  SOME NATIONAL WEATHER *****

CITY           SKY/WX    TMP DP  RH WIND       PRES   REMARKS
LA GUARDIA NY  HVY RAIN  54  50  87 N10G22    29.81F FOG
RALEIGH NC     PTCLDY    59  40  49 VRB6      29.99R
ATLANTA GA     CLEAR     63  42  46 NW9       30.07R
NEW ORLEANS LA CLEAR     76  51  41 NE7       30.02S
OKLAHOMA CITY  CLOUDY    74  57  55 S9        30.08S
ALBUQUERQUE NM PTSUNNY   73  38  27 CALM      30.13F
SALT LAKE CITY PTSUNNY   61  31  32 N9        30.15F
LOS ANGELES CA MOSUNNY   73  62  68 W13       29.90S
BOISE ID       CLOUDY    62  29  28 SE17G24   30.04F
SEATTLE WA     RAIN      56  54  93 SE7       29.65S FOG
$$

*** WEATHER ACROSS MANITOBA...SASKATCHEWAN AND ONTARIO ***
                ***ONTARIO***

CITY           SKY/WX    TMP DP  RH WIND       PRES   REMARKS
GERALDTON      PTCLDY    41  32  70 S12       30.17F
THUNDER BAY    PTCLDY    43  36  75 E7        30.16F
SIOUX LOOKOUT  MOCLDY    55  39  54 S12G21    29.91F
TORONTO        PTCLDY    50  39  66 N13       30.23S
BIG TROUT LK   CLEAR     54  41  62 S15G21    29.79S
PICKLE LAKE    PTCLDY    54  34  47 S14       29.91F
DRYDEN         MOCLDY    55  41  58 S10G17    29.88
KENORA         CLOUDY    57  45  62 S15G23    29.84R
$$
                *** MANITOBA***

CITY           SKY/WX    TMP DP  RH WIND       PRES   REMARKS
BRANDON        MOCLDY    59  46  63 SW18G24   29.69R
DAUPHIN        CLEAR     64  48  55 W8        29.60S
ISLAND LAKE    MOCLDY    57  45  62 SE8       29.69R
PILOT MOUND      N/A     57  45  62 SW12        N/A
THE PAS        PTCLDY    50  45  81 N5        29.62R
THOMPSON       LGT RAIN  48  45  87 N2        29.69R
WINNIPEG       LGT RAIN  59  50  72 S17G28    29.73R
LYNN LAKE      MOCLDY    43  41  93 N7        29.73R
CHURCHILL      LGT RAIN  37  37 100 N7        29.83R
$$
                ***SASKATCHEWAN***

CITY           SKY/WX    TMP DP  RH WIND       PRES   REMARKS
ESTEVAN        MOCLDY    54  46  76 W9        29.77S
KINDERSLEY     NOT AVBL
LLOYDMINSTER   PTCLDY    55  32  41 SE10      29.68R
PRINCE ALBERT  LGT RAIN  48  48 100 CALM      29.70S
REGINA         PTCLDY    54  48  82 NW9       29.75S
YORKTON        CLOUDY    54  46  76 W14       29.68R



USA.gov is the U.S. government's official web portal to all federal, state and local government web resources and services.